COSMOS 2251 DEB

Satellite information

Favourite Embed

Satellite Type and Status

DEBRISIN ORBIT

Key statistics

Satellite COSMOS 2251 DEB at a glance.

Uptime

11820

Days in orbit

Revolutions

≈ 14.9

Per day

Orbit

LEO

Low Earth Orbit

Inclination

74.0

Latest

Satellite identification and parameters

Extended collection of information and parameters for COSMOS 2251 DEB.

Object identification

Identified? True

Debris? True

Object name: COSMOS 2251 DEB

International designator: 1993-036BRU

Object number (NORAD): 38062

Object ID (CCSDS): 38062

Country: COMMONWEALTH OF INDEPENDENT STATES (CIS)

Current information (Y/N): Y

RCS size: SMALL

Orbital parameters

Period: 96.533 minutes

Inclination: 74.0117 deg

SMA: 6970.698 km

Apoapsis: 602.615 km

Periapsis: 582.512 km

RAAN: 33.5836 deg

Eccentricy: 0.001442

Argument of periapsis: 181.5831 deg

Mean anomaly: 194.9216 deg

Mean motion: 14.91723487 rev/day

Mean motion (dot): 0.00028869 rev/day2

B* drag term: 0.0028531622 1/REarth

Two-line elements (TLE)

Creation date: Oct. 23, 2025, 2:46 a.m.

Reference frame: TEME

Reference center: EARTH

Epoch: Oct. 22, 2025, 1:11 p.m. UTC

TLE line 0: 0 COSMOS 2251 DEB

TLE line 1: 1 38062U 93036BRU 25295.54960789 .00028869 00000-0 28532-2 0 9996

TLE line 2: 2 38062 74.0117 33.5836 0014420 181.5831 194.9216 14.91723487622667

Live tracking on map

Real-time ground track for satellite COSMOS 2251 DEB.

In-orbit conjunctions

A list of the most updated potential collisions computed for object COSMOS 2251 DEB.

Target Orbit TCA Probability of collision Miss distance Type
DUMMY MASS 2 LEO 2025-07-18 20:45:10 0.0001879837 466.0 (m) PAYLOAD
TIROS 8 LEO 2024-11-03 13:16:14 0.0001737071 657.0 (m) PAYLOAD

Associated space launch

Military communications satellite. Destroyed in a collision with Iridium 33.

COSMOS 2251 DEB was lifted into orbit during the mission ‘Kosmos-3M | Strela-2M 51’, on board a Kosmos-3M space rocket.

The launch took place on June 16, 1993, 4:17 a.m. from 132/1 (132L).

For more information about the launch, click the button.

Launch to space Kosmos-3M | Strela-2M 51
Kosmos-3M | Strela-2M 51

Agency: N/A

Status: Launch Successful

Launch date: June 16, 1993, 4:17 a.m. UTC

Rocket: Kosmos-3M

Launch pad: 132/1 (132L)

Location: Plesetsk Cosmodrome, Russian Federation

...

Latest news about this satellite

There are no fresh news available about this satellite. Check back as we update our databases every day.


Newsletter sign-up

Weekly statistics, charts and insights to help you stay on top of the space industry.